Location: Hancock Field Station
(44.9202°N, 120.4259°W)
Time: 16:48:42
(UTC-07:00)

Nadezhda 4 Rocket - Visible Passes

Search period start: 16 August 2017 00:00
Search period end: 26 August 2017 00:00
Orbit: 949 x 993 km, 82.9° (Epoch: 15 August)

Date Brightness Start Highest point End Pass type
(mag) Time Alt. Az. Time Alt. Az. Time Alt. Az.
16 Aug 5.6 20:53:51 10° SW 20:59:30 39° WNW 21:05:12 10° N visible
17 Aug 6.5 21:19:10 10° WSW 21:23:55 23° WNW 21:28:42 10° NNW visible
18 Aug 7.0 21:45:35 10° W 21:48:32 14° WNW 21:51:30 10° NNW visible
19 Aug 7.2 05:05:41 10° NNE 05:09:12 15° ENE 05:12:43 10° E visible
20 Aug 6.6 05:28:41 10° NNE 05:33:46 26° ENE 05:38:52 10° SE visible
20 Aug 6.3 20:45:33 10° SW 20:50:44 28° WNW 20:55:57 10° NNW visible
21 Aug 7.0 21:11:26 10° WSW 21:15:16 17° WNW 21:19:08 10° NNW visible
22 Aug 7.3 04:33:29 10° NE 04:35:56 12° ENE 04:38:22 10° E visible
23 Aug 6.8 04:55:58 10° NNE 05:00:34 21° ENE 05:05:12 10° ESE visible
23 Aug 6.0 20:12:03 10° SW 20:17:34 35° WNW 20:23:08 10° N visible
24 Aug 5.9 05:19:23 10° N 05:25:02 35° ENE 05:30:42 10° SE visible
24 Aug 6.9 20:37:32 10° WSW 20:42:01 21° WNW 20:46:34 10° NNW visible
25 Aug 4.8 05:43:10 10° N 05:49:20 59° ENE 05:55:30 10° SSE visible
25 Aug 7.4 21:04:21 10° W 21:06:41 12° WNW 21:09:02 10° NW visible
